CW5586 Weather Reports


time (UTC)temp
C
wind
direction
speed
KPH
gust
KPH
rain 1hr
cm
rain 24hr
cm
rain mn
cm
humidity
%
barometer
mb
20260507054604 5 0 0.0 3.2 0.00 0.00 0.00 78 1015.2
20260507051104 3 0 0.0 0.0 0.00 0.00 0.00 86 1014.9
20260507050604 3 0 0.0 0.0 0.00 0.00 0.00 86 1014.9
20260507050115 2 0 0.0 0.0 0.00 0.00 0.00 87 1014.8
20260507044604 2 0 0.0 0.0 0.00 0.00 0.00 91 1014.6
20260507041104 0 0 0.0 1.6 0.00 0.00 0.00 89 1014.5
20260507040114 0 0 0.0 3.2 0.00 0.00 0.00 88 1014.4
20260507034605 0 352 1.6 1.6 0.00 0.00 0.00 87 1014.4
20260507034104 0 0 0.0 0.0 0.00 0.00 0.00 87 1014.3
20260507033103 0 0 0.0 3.2 0.00 0.00 0.00 85 1014.4
20260507031104 0 0 0.0 0.0 0.00 0.00 0.00 87 1014.4
20260507030115 0 0 0.0 1.6 0.00 0.00 0.00 89 1014.3
20260507024604 0 0 0.0 3.2 0.00 0.00 0.00 88 1014.1
20260507023604 0 352 1.6 1.6 0.00 0.00 0.00 87 1014.0
20260507023104 0 351 1.6 3.2 0.00 0.00 0.00 86 1014.0
20260507020604 0 352 1.6 3.2 0.00 0.00 0.00 85 1013.9
20260507020115 0 0 0.0 3.2 0.00 0.00 0.00 85 1014.0
20260507014105 0 351 0.0 3.2 0.00 0.00 0.00 85 1013.9
20260507013104 0 0 0.0 1.6 0.00 0.00 0.00 85 1013.9
20260507011604 0 351 1.6 1.6 0.00 0.00 0.00 85 1013.8
20260507010604 0 351 0.0 1.6 0.00 0.00 0.00 85 1013.7
20260507001103 1 0 0.0 3.2 0.00 0.00 0.00 79 1013.3
20260507000602 1 290 0.0 3.2 0.00 0.00 0.00 79 1013.3
20260506234102 2 0 0.0 3.2 0.00 0.00 0.00 73 1013.3
20260506233604 2 0 0.0 3.2 0.00 0.00 0.00 72 1013.1
20260506233104 3 0 0.0 3.2 0.00 0.00 0.00 71 1013.2
20260506231603 3 0 0.0 3.2 0.00 0.00 0.00 69 1013.1
20260506231103 3 0 0.0 3.2 0.00 0.00 0.00 69 1013.0
20260506230114 4 0 0.0 3.2 0.00 0.00 0.00 70 1012.9
20260506224604 5 280 1.6 3.2 0.00 0.00 0.00 66 1012.9
20260506224103 5 311 0.0 1.6 0.00 0.00 0.00 67 1012.9
20260506223603 5 311 0.0 3.2 0.00 0.00 0.00 66 1012.9
20260506223104 5 0 0.0 3.2 0.00 0.00 0.00 65 1012.9
20260506220604 5 326 0.0 4.8 0.00 0.00 0.00 63 1012.8
20260506214603 6 316 1.6 3.2 0.00 0.00 0.00 60 1012.6
20260506211103 6 283 1.6 8.0 0.00 0.00 0.00 59 1012.2
20260506210604 6 251 3.2 4.8 0.00 0.00 0.00 60 1012.2
20260506210114 6 262 3.2 4.8 0.00 0.00 0.00 60 1012.2
20260506204603 5 0 0.0 0.0 0.00 0.00 0.00 63 1012.2
20260506201604 6 352 1.6 1.6 0.00 0.00 0.00 58 1012.2
20260506200603 7 0 0.0 3.2 0.00 0.00 0.00 56 1012.2
20260506193104 8 340 0.0 4.8 0.00 0.00 0.00 49 1012.2
20260506191604 9 288 3.2 3.2 0.00 0.00 0.00 46 1011.9
20260506190114 10 326 0.0 4.8 0.00 0.00 0.00 45 1011.8
20260506183604 11 292 1.6 9.7 0.00 0.00 0.00 40 1011.5
20260506181604 11 298 3.2 11.3 0.00 0.00 0.00 40 1011.4
20260506181103 11 267 3.2 12.9 0.00 0.00 0.00 39 1011.3
20260506180603 11 281 8.0 16.1 0.00 0.00 0.00 38 1011.4
20260506180113 12 284 1.6 16.1 0.00 0.00 0.00 38 1011.4
20260506174103 12 285 4.8 19.3 0.00 0.00 0.00 35 1011.2
20260506171603 12 292 1.6 14.5 0.00 0.00 0.00 35 1011.1
20260506170115 13 333 9.7 19.3 0.00 0.00 0.00 35 1011.1
20260506163603 13 253 11.3 16.1 0.00 0.00 0.00 32 1011.0
20260506160604 13 326 8.0 22.5 0.00 0.00 0.00 31 1010.9
20260506160114 13 275 4.8 22.5 0.00 0.00 0.00 31 1010.9
20260506154103 13 294 12.9 12.9 0.00 0.00 0.00 30 1010.9
20260506153603 13 291 4.8 12.9 0.00 0.00 0.00 31 1010.9
20260506153103 13 282 4.8 19.3 0.00 0.00 0.00 30 1010.9
20260506151604 14 277 3.2 12.9 0.00 0.00 0.00 29 1011.0
20260506151103 14 277 8.0 14.5 0.00 0.00 0.00 29 1010.9
20260506150603 13 279 8.0 14.5 0.00 0.00 0.00 29 1010.9
20260506144603 13 247 11.3 20.9 0.00 0.00 0.00 29 1011.0
20260506144103 13 234 1.6 20.9 0.00 0.00 0.00 28 1011.1
20260506143104 13 263 3.2 24.1 0.00 0.00 0.00 29 1011.0
20260506140114 13 300 1.6 20.9 0.00 0.00 0.00 30 1011.1
20260506134604 13 268 11.3 20.9 0.00 0.00 0.00 29 1011.1
20260506134104 14 230 12.9 20.9 0.00 0.00 0.00 29 1011.1
20260506130114 13 288 9.7 20.9 0.00 0.00 0.00 30 1011.1
20260506124604 14 291 4.8 14.5 0.00 0.00 0.00 23 1011.1
20260506123103 14 292 4.8 12.9 0.00 0.00 0.00 25 1011.2
20260506114603 14 225 8.0 14.5 0.00 0.00 0.00 24 1011.4
20260506114103 14 219 8.0 14.5 0.00 0.00 0.00 24 1011.4
20260506113603 14 190 4.8 14.5 0.00 0.00 0.00 24 1011.4
20260506110604 15 242 4.8 4.8 0.00 0.00 0.00 24 1011.6
20260506110114 14 24 1.6 11.3 0.00 0.00 0.00 25 1011.6
20260506104603 13 147 4.8 12.9 0.00 0.00 0.00 25 1011.7
20260506104103 13 242 1.6 12.9 0.00 0.00 0.00 25 1011.8
20260506101603 13 189 4.8 12.9 0.00 0.00 0.00 25 1011.9
20260506101103 13 300 3.2 12.9 0.00 0.00 0.00 26 1012.0
20260506100115 13 161 4.8 12.9 0.00 0.00 0.00 28 1012.0
20260506094104 13 180 3.2 12.9 0.00 0.00 0.00 29 1012.2
20260506093103 12 164 11.3 11.3 0.00 0.00 0.00 29 1012.1
20260506091603 12 246 1.6 11.3 0.00 0.00 0.00 29 1012.2
20260506090114 12 217 1.6 12.9 0.00 0.00 0.00 29 1012.2
20260506084604 12 158 4.8 12.9 0.00 0.00 0.00 29 1012.3
20260506084103 11 74 8.0 14.5 0.00 0.00 0.00 28 1012.3
20260506083604 11 146 4.8 14.5 0.00 0.00 0.00 28 1012.3
20260506071103 10 281 0.0 4.8 0.00 0.00 0.00 47 1012.3